Great Bend, KS

2:28 PM CST on December 06, 2016 (GMT -0600)
Great Bend Municipal

Weather History for KGBD - January, 2014

Change the Weather History Date:

Friday, January 31, 2014

  Actual Average Record
Temperature  
Mean Temperature 24 °F -  
Max Temperature 28 °F 47 °F 51 °F (2016)
Min Temperature 19 °F 22 °F 19 °F (2014)
Degree Days  
Heating Degree Days 42    
Moisture  
Dew Point 13 °F    
Average Humidity 66    
Maximum Humidity 86    
Minimum Humidity 51    
Precipitation  
Precipitation 0.00 in - - ()
Sea Level Pressure  
Sea Level Pressure 29.92 in    
Wind  
Wind Speed 14 mph (NE)    
Max Wind Speed 20 mph    
Max Gust Speed 25 mph    
Visibility 9 miles    
Events      
Averages and records for this station are not official NWS values.
T = Trace of Precipitation, MM = Missing Value Source: NWS Daily Summary

Daily Weather History Graph

Daily Weather History Graph

Search for Another Location

Airport or City:

Trip Planner

Search our weather history database for the weather conditions in past years. The results will help you decide how hot, cold, wet, or windy it might be!

Date:

Astronomy

Jan. 31, 2014 Rise Set
Actual Time 7:41 AM CST 5:56 PM CST
Civil Twilight 7:13 AM CST 6:24 PM CST
Nautical Twilight 6:41 AM CST 6:56 PM CST
Astronomical Twilight 6:10 AM CST 7:27 PM CST
Moon 7:53 AM CST (1/31) 7:21 PM CST (1/31)
Length of Visible Light 11h 11m
Length of Day
10h 15m
New Moon, 1% of the Moon is Illuminated
Jan 31
New Moon
Feb 6
First Quarter
Feb 14
Full
Feb 22
Last Quarter
Mar 1
New

Hourly Weather History & Observations

Time (CST) Temp. Windchill Dew Point Humidity Pressure Visibility Wind Dir Wind Speed Gust Speed Precip Events Conditions
12:15 AM 28.4 °F 16.6 °F 12.2 °F 51% 29.90 in 10.0 mi ENE 16.1 mph - N/A   Scattered Clouds
12:35 AM 28.4 °F 17.5 °F 12.2 °F 51% 29.90 in 10.0 mi ENE 13.8 mph 19.6 mph N/A   Clear
12:55 AM 28.4 °F 15.8 °F 12.2 °F 51% 29.90 in 10.0 mi ENE 18.4 mph 24.2 mph N/A   Clear
1:15 AM 26.6 °F 13.4 °F 12.2 °F 55% 29.90 in 10.0 mi NE 18.4 mph 24.2 mph N/A   Partly Cloudy
1:35 AM 26.6 °F 13.4 °F 12.2 °F 55% 29.91 in 10.0 mi NE 18.4 mph - N/A   Partly Cloudy
1:55 AM 26.6 °F 14.3 °F 12.2 °F 55% 29.91 in 10.0 mi ENE 16.1 mph - N/A   Partly Cloudy
2:15 AM 26.6 °F 15.2 °F 12.2 °F 55% 29.89 in 10.0 mi ENE 13.8 mph - N/A   Scattered Clouds
2:35 AM 24.8 °F 11.1 °F 12.2 °F 59% 29.91 in 10.0 mi ENE 18.4 mph 24.2 mph N/A   Scattered Clouds
2:55 AM 24.8 °F 11.1 °F 12.2 °F 59% 29.90 in 10.0 mi ENE 18.4 mph - N/A   Mostly Cloudy
3:15 AM 24.8 °F 11.9 °F 12.2 °F 59% 29.90 in 10.0 mi ENE 16.1 mph - N/A   Mostly Cloudy
3:35 AM 24.8 °F 11.5 °F 12.2 °F 59% 29.90 in 10.0 mi ENE 17.3 mph 24.2 mph N/A   Mostly Cloudy
3:55 AM 24.8 °F 11.9 °F 12.2 °F 59% 29.90 in 10.0 mi ENE 16.1 mph - N/A   Overcast
4:15 AM 24.8 °F 12.9 °F 12.2 °F 59% 29.89 in 10.0 mi ENE 13.8 mph 20.7 mph N/A   Mostly Cloudy
4:35 AM 24.8 °F 11.1 °F 12.2 °F 59% 29.90 in 10.0 mi ENE 18.4 mph 24.2 mph N/A   Mostly Cloudy
4:55 AM 24.8 °F 11.9 °F 12.2 °F 59% 29.89 in 10.0 mi ENE 16.1 mph - N/A   Overcast
5:15 AM 24.8 °F 11.1 °F 12.2 °F 59% 29.91 in 10.0 mi NE 18.4 mph - N/A   Overcast
5:35 AM 24.8 °F 12.4 °F 12.2 °F 59% 29.90 in 10.0 mi NE 15.0 mph 23.0 mph N/A   Mostly Cloudy
5:55 AM 23.0 °F 10.1 °F 12.2 °F 63% 29.90 in 10.0 mi NE 15.0 mph 21.9 mph N/A   Mostly Cloudy
6:15 AM 23.0 °F 8.7 °F 10.4 °F 59% 29.92 in 10.0 mi NE 18.4 mph 24.2 mph N/A   Mostly Cloudy
6:35 AM 23.0 °F 9.6 °F 8.6 °F 54% 29.92 in 10.0 mi NE 16.1 mph 25.3 mph N/A   Mostly Cloudy
6:55 AM 23.0 °F 8.7 °F 8.6 °F 54% 29.94 in 10.0 mi NE 18.4 mph 24.2 mph N/A   Mostly Cloudy
7:15 AM 21.2 °F 7.3 °F 8.6 °F 58% 29.95 in 10.0 mi NE 16.1 mph - N/A   Overcast
7:35 AM 21.2 °F 6.8 °F 8.6 °F 58% 29.96 in 10.0 mi NE 17.3 mph 24.2 mph N/A   Mostly Cloudy
7:55 AM 21.2 °F 6.0 °F 8.6 °F 58% 29.98 in 10.0 mi NE 19.6 mph - N/A   Overcast
8:15 AM 19.4 °F 4.5 °F 10.4 °F 68% 29.97 in 10.0 mi NE 17.3 mph 24.2 mph N/A   Mostly Cloudy
8:35 AM 19.4 °F 4.1 °F 10.4 °F 68% 29.97 in 10.0 mi NE 18.4 mph - N/A   Mostly Cloudy
8:55 AM 19.4 °F 5.5 °F 10.4 °F 68% 29.99 in 10.0 mi NE 15.0 mph 21.9 mph N/A   Mostly Cloudy
9:15 AM 21.2 °F 7.3 °F 10.4 °F 63% 29.99 in 10.0 mi NE 16.1 mph 20.7 mph N/A   Mostly Cloudy
9:35 AM 21.2 °F 6.8 °F 10.4 °F 63% 29.99 in 10.0 mi NE 17.3 mph 23.0 mph N/A   Mostly Cloudy
9:55 AM 21.2 °F 7.3 °F 10.4 °F 63% 29.99 in 10.0 mi NE 16.1 mph 20.7 mph N/A   Overcast
10:15 AM 21.2 °F 7.8 °F 12.2 °F 68% 29.99 in 10.0 mi ENE 15.0 mph - N/A   Overcast
10:35 AM 21.2 °F 7.8 °F 12.2 °F 68% 29.99 in 10.0 mi NE 15.0 mph - N/A   Overcast
10:55 AM 21.2 °F 8.9 °F 10.4 °F 63% 30.01 in 10.0 mi NNE 12.7 mph - N/A   Overcast
11:15 AM 21.2 °F 8.3 °F 12.2 °F 68% 30.01 in 10.0 mi NE 13.8 mph 18.4 mph N/A   Overcast
11:35 AM 21.2 °F 10.1 °F 12.2 °F 68% 30.01 in 10.0 mi NNE 10.4 mph - N/A   Overcast
11:55 AM 23.0 °F 10.6 °F 12.2 °F 63% 29.99 in 10.0 mi NE 13.8 mph - N/A   Overcast
12:15 PM 23.0 °F 11.1 °F 12.2 °F 63% 29.97 in 10.0 mi NE 12.7 mph 18.4 mph N/A   Overcast
12:35 PM 23.0 °F 10.6 °F 12.2 °F 63% 29.96 in 10.0 mi NE 13.8 mph - N/A   Overcast
12:55 PM 23.0 °F 11.1 °F 12.2 °F 63% 29.96 in 10.0 mi NE 12.7 mph - N/A   Overcast
1:15 PM 23.0 °F 12.4 °F 12.2 °F 63% 29.94 in 10.0 mi NE 10.4 mph - N/A   Overcast
1:35 PM 23.0 °F 11.1 °F 12.2 °F 63% 29.93 in 10.0 mi NE 12.7 mph - N/A   Overcast
1:55 PM 24.8 °F 14.6 °F 12.2 °F 59% 29.92 in 10.0 mi NE 10.4 mph - N/A   Overcast
2:15 PM 24.8 °F 14.6 °F 12.2 °F 59% 29.91 in 10.0 mi ENE 10.4 mph - N/A   Overcast
2:35 PM 24.8 °F 15.3 °F 12.2 °F 59% 29.91 in 10.0 mi NNE 9.2 mph - N/A   Overcast
2:55 PM 23.0 °F 12.4 °F 12.2 °F 63% 29.91 in 10.0 mi East 10.4 mph - N/A   Overcast
3:15 PM 23.0 °F 12.4 °F 12.2 °F 63% 29.91 in 10.0 mi ENE 10.4 mph - N/A   Overcast
3:35 PM 23.0 °F 12.4 °F 12.2 °F 63% 29.89 in 10.0 mi ENE 10.4 mph - N/A   Overcast
3:55 PM 24.8 °F 14.6 °F 14.0 °F 64% 29.89 in 10.0 mi ENE 10.4 mph - N/A   Overcast
4:15 PM 23.0 °F 12.4 °F 12.2 °F 63% 29.87 in 10.0 mi ENE 10.4 mph - N/A   Overcast
4:35 PM 24.8 °F 15.3 °F 14.0 °F 64% 29.87 in 10.0 mi NE 9.2 mph - N/A   Overcast
4:55 PM 23.0 °F 12.4 °F 14.0 °F 68% 29.88 in 10.0 mi ENE 10.4 mph - N/A   Overcast
5:15 PM 23.0 °F 12.4 °F 14.0 °F 68% 29.89 in 10.0 mi ENE 10.4 mph - N/A   Overcast
5:35 PM 21.2 °F 10.9 °F 15.8 °F 80% 29.88 in 10.0 mi NE 9.2 mph - N/A   Overcast
5:55 PM 21.2 °F 10.1 °F 15.8 °F 80% 29.86 in 5.0 mi ENE 10.4 mph - N/A   Overcast
6:15 PM 21.2 °F 10.9 °F 15.8 °F 80% 29.86 in 8.0 mi ENE 9.2 mph - N/A   Overcast
6:35 PM 21.2 °F 11.7 °F 15.8 °F 80% 29.86 in 8.0 mi ENE 8.1 mph - N/A   Overcast
6:55 PM 21.2 °F 11.7 °F 15.8 °F 80% 29.87 in 6.0 mi ENE 8.1 mph - N/A   Overcast
7:15 PM 21.2 °F 10.1 °F 15.8 °F 80% 29.87 in 6.0 mi NE 10.4 mph - N/A   Overcast
7:35 PM 21.2 °F 14.9 °F 15.8 °F 80% 29.91 in 6.0 mi NNE 4.6 mph - N/A   Overcast
7:55 PM 21.2 °F 9.5 °F 15.8 °F 80% 29.85 in 8.0 mi ENE 11.5 mph - N/A   Overcast
8:15 PM 21.2 °F 11.7 °F 15.8 °F 80% 29.89 in 9.0 mi NE 8.1 mph - N/A   Overcast
8:35 PM 21.2 °F 12.6 °F 15.8 °F 80% 29.90 in 2.5 mi ENE 6.9 mph - N/A   Overcast
8:55 PM 21.2 °F - 15.8 °F 80% 29.93 in 2.5 mi Calm Calm - N/A   Overcast
9:15 PM 21.2 °F 13.6 °F 15.8 °F 80% 29.88 in 3.0 mi ENE 5.8 mph - N/A   Overcast
9:35 PM 21.2 °F 13.6 °F 15.8 °F 80% 29.91 in 5.0 mi NNW 5.8 mph - N/A   Overcast
9:55 PM 21.2 °F 13.6 °F 17.6 °F 86% 29.92 in 5.0 mi NNW 5.8 mph - N/A   Overcast
10:15 PM 21.2 °F 14.9 °F 15.8 °F 80% 29.89 in 10.0 mi North 4.6 mph - N/A   Overcast
10:35 PM 21.2 °F 14.9 °F 15.8 °F 80% 29.89 in 1.5 mi NNE 4.6 mph - N/A   Overcast
10:55 PM 21.2 °F 12.6 °F 15.8 °F 80% 29.86 in 1.2 mi NNE 6.9 mph - N/A   Overcast
11:15 PM 21.2 °F 11.7 °F 15.8 °F 80% 29.87 in 5.0 mi North 8.1 mph - N/A   Overcast
11:35 PM 21.2 °F 14.9 °F 15.8 °F 80% 29.90 in 10.0 mi NW 4.6 mph - N/A   Overcast
11:55 PM 19.4 °F 6.6 °F 15.8 °F 86% 29.84 in 10.0 mi North 12.7 mph - N/A   Overcast